This demonstration page uses our WeatherBlox Daily Observations layout. Learn more.

Left ArrowRight Arrow

44.8408, -93.29828

Hourly Observations for November 13, 2020

Temp ( °F °C ) Dew Point ( °F °C ) Humidity (%) Winds ( mph kmh ) Pressure ( in mb ) Visibility ( mi km ) Precip ( " mm )
12:53 am 00:53 Clear 21 -6.1 13 -10.6 71 71 WSW 6 9 30.20 1023 10 16 0.00 0.00
1:53 am 01:53 Clear 19 -7.2 14 -10 81 81 WSW 6 9 30.21 1023 10 16 0.00 0.00
2:53 am 02:53 Clear 17 -8.3 13 -10.6 84 84 WSW 6 9 30.22 1023 9 14 0.00 0.00
3:50 am 03:50 Mostly Clear with Mist and Fog 16 -9 12 -11 86 86 WSW 6 9 30.25 1024 2 3 0.00 0.00
3:53 am 03:53 Mostly Clear with Mist and Fog 16 -8.9 13 -10.6 88 88 WSW 7 11 30.22 1023 2 3 0.00 0.00
3:56 am 03:56 Mostly Clear 16 -8.9 12 -11.1 84 84 WSW 7 11 30.25 1024 10 16 0.00 0.00
4:53 am 04:53 Clear 15 -9.4 12 -11.1 88 88 WSW 5 7 30.23 1024 10 16 0.00 0.00
5:53 am 05:53 Clear 14 -10 11 -11.7 88 88 SW 3 6 30.23 1024 10 16 0.00 0.00
6:53 am 06:53 Clear 13 -10.6 11 -11.7 92 92 SW 7 11 30.24 1024 8 13 0.00 0.00
7:53 am 07:53 Sunny 14 -10 11 -11.7 88 88 S 5 7 30.24 1024 8 13 0.00 0.00
8:53 am 08:53 Sunny 17 -8.3 13 -10.6 84 84 VRB 5 7 30.24 1024 10 16 0.00 0.00
9:53 am 09:53 Sunny 20 -6.7 15 -9.4 81 81 S 3 6 30.23 1024 10 16 0.00 0.00
10:53 am 10:53 Sunny 24 -4.4 16 -8.9 71 71 SE 3 6 30.21 1023 10 16 0.00 0.00
11:53 am 11:53 Mostly Sunny 29 -1.7 19 -7.2 66 66 SE 7 11 30.19 1022 10 16 0.00 0.00
12:53 pm 12:53 Mostly Sunny 31 -0.6 20 -6.7 64 64 SSE 10 17 30.16 1021 10 16 0.00 0.00
1:53 pm 13:53 Mostly Sunny 32 0 21 -6.1 64 64 SSE 12 19 30.12 1020 10 16 0.00 0.00
2:53 pm 14:53 Mostly Sunny 34 1.1 23 -5 64 64 S 12 19 30.08 1019 10 16 0.00 0.00
3:53 pm 15:53 Partly Cloudy 34 1.1 24 -4.4 67 67 SE 12 19 30.04 1017 10 16 0.00 0.00
4:53 pm 16:53 Mostly Cloudy 34 1.1 25 -3.9 70 70 SSE 14 22 30.02 1017 10 16 0.00 0.00
5:53 pm 17:53 Partly Cloudy 33 0.6 25 -3.9 72 72 SSE 16 26 29.99 1016 10 16 0.00 0.00
6:53 pm 18:53 Partly Cloudy 33 0.6 25 -3.9 72 72 S 10 17 29.99 1016 10 16 0.00 0.00
7:53 pm 19:53 Mostly Clear 33 0.6 25 -3.9 72 72 S 13 20 29.98 1015 10 16 0.00 0.00
8:53 pm 20:53 Mostly Clear 32 0 24 -4.4 73 73 S 12 19 29.96 1015 10 16 0.00 0.00
9:53 pm 21:53 Clear 30 -1.1 23 -5 75 75 SSE 9 15 29.95 1014 10 16 0.00 0.00
10:53 pm 22:53 Clear 29 -1.7 22 -5.6 75 75 SSE 10 17 29.92 1013 10 16 0.00 0.00
11:53 pm 23:53 Clear 31 -0.6 22 -5.6 69 69 SSE 10 17 29.90 1013 10 16 0.00 0.00

Powered by AerisWeather